This is the latest recevied weather packets stored in our database for station/object KQ4DLB-13. If no packets are shown the sender has not sent any weather packets the latest 1 day(s).
| Time | Temp. | Humidity | Pressure | Rain* | Wind** | Luminosity | Snow |
|---|---|---|---|---|---|---|---|
| 1778041802 | 20.56° C | 73% | 981.9 hPa | 0 mm | 3.13 m/s, 326° | - | - |
| 1778041501 | 20.56° C | 73% | 982.1 hPa | 0 mm | 3.58 m/s, 355° | - | - |
| 1778041203 | 20.56° C | 74% | 982.2 hPa | 0 mm | 3.13 m/s, 17° | - | - |
| 1778040902 | 20.56° C | 74% | 982.4 hPa | 0 mm | 2.24 m/s, 16° | - | - |
| 1778040603 | 20.56° C | 74% | 982.4 hPa | 0 mm | 3.13 m/s, 308° | - | - |
| 1778040302 | 20.56° C | 74% | 982.4 hPa | 0 mm | 2.68 m/s, 8° | - | - |
| 1778040002 | 20.56° C | 74% | 982.5 hPa | 0 mm | 3.58 m/s, 349° | - | - |
| 1778039702 | 20° C | 74% | 982.5 hPa | 0 mm | 2.68 m/s, 312° | - | - |
| 1778039402 | 20° C | 75% | 982.5 hPa | 0 mm | 3.13 m/s, 238° | - | - |
| 1778039102 | 20° C | 75% | 982.6 hPa | 0 mm | 3.13 m/s, 327° | - | - |
| 1778038802 | 20° C | 76% | 982.7 hPa | 0 mm | 2.68 m/s, 14° | - | - |
| 1778038502 | 20° C | 75% | 982.8 hPa | 0 mm | 2.68 m/s, 307° | - | - |
| 1778038202 | 20° C | 75% | 983 hPa | 0 mm | 2.68 m/s, 347° | - | - |
| 1778037902 | 20° C | 75% | 982.7 hPa | 0 mm | 2.68 m/s, 336° | - | - |
| 1778037602 | 20° C | 75% | 982.7 hPa | 0 mm | 3.13 m/s, 337° | - | - |
| 1778037302 | 19.44° C | 77% | 982.8 hPa | 0 mm | 1.79 m/s, 47° | - | - |
| 1778037002 | 19.44° C | 77% | 982.9 hPa | 0 mm | 1.79 m/s, 359° | - | - |
| 1778036702 | 19.44° C | 77% | 982.9 hPa | 0 mm | 1.79 m/s, 52° | - | - |
| 1778036102 | 19.44° C | 76% | 982.7 hPa | 0 mm | 1.79 m/s, 20° | - | - |
| 1778035802 | 20° C | 76% | 982.7 hPa | 0 mm | 1.79 m/s, 241° | - | - |
| 1778035501 | 20° C | 75% | 982.6 hPa | 0 mm | 1.79 m/s, 309° | - | - |
| 1778035202 | 19.44° C | 75% | 982.8 hPa | 0 mm | 2.68 m/s, 25° | - | - |
| 1778034902 | 19.44° C | 76% | 982.8 hPa | 0 mm | 2.68 m/s, 329° | - | - |
| 1778034602 | 19.44° C | 76% | 982.6 hPa | 0 mm | 2.68 m/s, 359° | - | - |
| 1778034302 | 19.44° C | 77% | 982.7 hPa | 0 mm | 2.68 m/s, 176° | - | - |
* Rain latest hour (hover to see other rain measurements)
** Current wind speed in m/s (hover to see current wind gust speed)